SCP
0 0 0 0 0 0 -0 0 0 0 0 0 0 0 0 0 0 0 0 0 -0 -0 -0 -0 -0 -0 -0 -0 -0 -0 -0 -0 -0 -0 -0 -0 -0 -0 -0 -0 -0 -0 -0 -0 -0 -0 -0 -0 -0
0 0 0 0 0 0 0 0 0 0 0 0 0 0 0 0 0 0 0 0 0 0 -0 -0 -0 -0 -0 -0 -0 -0 -0 -0 -0 -0 -0 -0 -0 -0 -0 -0 -0 -0 -0 -0 -0 0 -0 -0 -0
0 0 0 0 0 0 0 0 0 0 0 0 0 0 0 0 0 0 0 0 0 0 0 0 0 -0 -0 -0 -0 -0 -0 -0 -0 -0 -0 -0 -0 -0 -0 -0 -0 -0 0 0 0 0 0 0 0
0 0 0 0 -0 0 0 0 0 0 0 0 0 0 0 0 0 0 0 0 0 0 0 0 0 0 -0 -0 -0 -0 -0 -0 -0 -0 -0 -0 -0 0 0 0 0 0 0 0 0 0 0 0 0
0 0 0 0 0 0 0 0 0 0 0 0 0 0 0 0 0 0 0 0 0 0 0 0 0 0 0 0 0 0 0 0 0 0 0 0 0 0 0 0 0 0 0 0 0 0 0 0 0
0 0 0 0 0 0 0 0 0 0 0 0 0 0 0 0 0 0 0 0 0 0 0 0 0 0 0 0 0 0 0 0 0 0 0 0 0 0 0 0 -0 -0 -0 -0 0 0 0 0 0
0 0 0 0 -0 0 0 0 0 0 0 0 0 0 0 0 0 0 0 0 0 0 0 0 0 0 0 0 0 0 0 0 0 0 0 0 0 0 0 0 0 0 0 0 0 0 0 0 0
0 0 0 0 0 0 0 0 0 0 0 0 0 0 0 0 0 0 0 0 0 0 0 0 0 0 0 0 0 0 0 0 0 0 0 0 0 0 0 0 0 0 0 0 0 0 0 0 0
0 0 0 0 0 0 0 0 0 0 0 0 0 0 0 0 0 0 0 0 0 0 0 0 0 0 0 0 0 0 0 0 0 0 0 0 0 0 0 0 0 0 0 0 0 0 0 0 0
0 0 0 0 0 0 0 0 0 0 0 0 0 0 0 0 0 0 0 0 0 0 0 0 0 0 0 0 0 0 0 0 0 0 0 0 0 0 0 0 0 0 0 0 0 0 0 0 0
0 0 0 0 0 0 0 0 0 0 0 0 0 0 0 0 0 0 0 0 0 0 0 0 0 0 0 0 0 0 0 0 0 0 0 0 0 0 0 0 0 0 0 0 0 0 0 0 0
0 0 0 0 0 0 0 0 0 0 0 0 0 0 -0 0 0 0 0 0 0 0 0 0 0 0 0 0 0 0 0 0 0 0 0 0 0 0 0 0 0 0 0 0 0 0 0 0 0
0 0 0 0 0 0 0 0 0 0 0 0 0 0 0 0 0 0 0 0 0 0 0 0 0 0 0 0 0 0 0 0 0 0 0 0 0 0 0 0 0 0 0 0 0 0 0 0 0
0 0 0 0 0 0 0 0 0 0 0 0 0 0 0 0 0 0 0 0 0 0 0 0 0 0 0 0 0 0 0 0 0 0 0 0 0 0 0 0 0 0 0 0 -0 -0 -0 0 0
0 0 0 0 0 0 0 0 0 0 0 0 0 0 0 0 0 0 0 0 0 0 0 0 0 0 0 0 0 0 0 0 0 0 0 0 0 0 0 0 0 0 0 0 -0 -0 -0 0 0
0 0 0 0 0 0 0 0 0 0 0 0 0 0 0 0 0 0 0 0 0 0 0 0 0 0 0 0 0 0 0 0 0 0 0 0 0 0 0 0 0 0 0 0 0 0 0 0 0
0 0 0 0 0 0 0 0 0 0 0 0 0 0 0 0 0 0 0 0 0 0 0 0 0 0 0 0 0 0 0 0 0 0 0 0 0 0 0 0 0 0 0 0 0 0 0 0 0
0 0 0 0 0 0 0 0 0 0 0 0 0 0 0 0 0 0 0 0 0 0 0 0 0 0 0 0 0 0 0 0 0 0 0 0 0 0 0 0 0 0 0 0 0 0 0 0 -0
0 0 0 0 0 0 0 0 0 0 0 0 0 0 0 0 0 0 0 0 0 0 0 0 0 0 0 0 0 0 0 0 0 0 0 0 0 0 0 0 0 0 0 0 0 0 0 0 -0
0 0 0 0 0 0 0 0 0 0 0 0 0 0 0 0 0 0 0 0 0 0 0 0 0 0 0 0 0 0 0 0 0 0 0 0 0 0 0 0 0 0 0 0 0 0 0 0 0
0 0 0 0 0 0 0 0 0 0 0 0 0 0 0 0 0 0 0 0 0 0 0 0 0 0 0 0 0 0 0 0 0 0 0 0 0 0 0 0 0 0 0 0 0 0 0 0 0
0 0 0 0 0 0 0 0 0 0 0 0 0 0 0 0 0 0 0 0 0 0 0 0 0 0 0 0 0 0 0 0 0 0 0 0 0 0 0 0 0 0 0 0 0 0 0 0 0
0 0 0 0 0 0 0 0 0 0 0 0 0 0 0 0 0 0 0 0 0 0 0 0 0 0 0 0 0 0 0 0 0 0 0 0 0 0 0 0 0 0 0 0 0 0 0 0 0
0 0 0 0 0 0 0 0 0 0 0 0 0 0 0 0 0 0 0 0 0 0 0 0 0 0 0 0 0 0 0 0 0 0 0 0 0 0 0 0 0 0 0 0 0 0 0 0 0
0 0 0 0 0 0 0 0 0 0 0 0 0 0 0 0 0 0 0 0 0 0 0 0 0 0 0 0 0 0 0 0 0 0 0 0 0 0 0 0 0 0 0 0 0 0 0 0 0
0 0 0 0 0 0 0 0 0 0 0 0 0 0 0 0 0 0 0 0 0 0 0 0 0 0 0 0 0 0 0 0 0 0 0 0 0 0 0 0 0 0 0 0 0 0 0 0 0
0 0 0 0 0 0 0 0 0 0 0 0 0 0 0 0 0 0 0 0 0 0 0 0 0 0 0 0 0 0 0 0 0 0 0 0 0 0 0 0 0 0 0 0 0 0 0 0 0
0 0 0 0 0 0 0 0 0 0 0 0 0 0 0 0 0 0 0 0 0 0 0 0 0 0 0 0 0 0 0 0 0 0 0 0 0 0 0 0 0 0 0 0 0 0 0 0 0
0 0 0 0 0 0 0 0 0 0 0 0 0 0 0 0 0 0 0 0 0 0 0 0 0 0 0 0 0 0 0 0 0 0 0 0 0 0 0 0 0 0 0 0 0 0 0 0 0
0 0 0 0 0 0 0 0 0 0 0 0 0 0 0 0 0 0 0 0 0 0 0 0 0 0 0 0 0 0 0 0 0 0 0 0 0 0 0 0 0 0 0 0 0 0 0 0 0
Wind_Speed_500mb
7 3 6 5 3 5 11 11 7 11 3 10 8 8 3 15 4 5 21 35 30 19 16 16 13 11 11 7 10 10 7 6 8 9 10 11 13 15 17 17 19 18 18 17 17 18 21 24 26
8 4 6 10 4 8 6 16 11 14 15 16 5 10 3 7 3 11 23 35 31 25 17 13 10 7 6 3 5 6 10 12 14 18 18 18 18 19 20 21 20 21 22 23 25 27 28 27 26
5 4 6 6 9 13 5 8 14 25 20 16 9 6 6 8 4 16 17 36 31 25 19 11 8 7 5 5 7 8 10 12 17 17 17 18 19 20 22 22 23 25 26 29 30 31 32 32 31
8 4 11 5 19 17 7 7 41 21 9 10 3 7 6 15 19 19 23 37 32 27 19 14 9 5 3 2 1 2 2 5 7 7 8 10 12 15 17 19 20 22 23 24 28 30 32 33 34
3 9 6 12 20 5 11 11 29 17 21 21 15 8 7 17 29 18 25 36 31 26 18 12 10 10 8 6 5 4 4 5 7 7 9 11 13 15 16 17 19 20 22 25 27 28 27 28 30
9 8 7 12 12 11 8 9 17 26 25 25 18 16 9 18 27 26 31 34 33 29 22 21 20 18 13 11 9 8 7 6 9 10 10 10 10 9 9 10 11 12 14 17 20 22 23 25 26
6 5 13 20 17 3 11 16 17 22 22 21 9 7 11 24 26 30 32 37 36 32 30 27 24 19 16 13 11 9 8 7 7 5 5 6 7 9 10 13 17 19 20 21 23 24 26 27 27
9 4 11 11 9 10 11 15 4 21 13 18 31 11 11 31 31 32 36 38 39 38 38 35 29 26 21 17 14 12 9 8 7 5 5 6 6 7 12 16 18 21 25 27 27 28 29 29 28
6 5 10 15 1 1 14 11 14 16 9 19 25 19 13 17 30 35 41 43 45 46 45 42 37 32 27 22 18 15 14 12 10 8 7 7 6 9 11 15 19 24 27 28 29 30 30 29 29
10 6 11 6 10 6 14 21 15 8 23 25 29 32 32 33 37 41 46 49 51 52 52 49 44 39 33 29 25 21 19 18 17 15 12 9 6 7 10 13 17 20 23 27 29 29 28 29 29
12 10 3 9 9 8 13 18 27 15 16 31 43 48 50 48 49 49 51 51 52 52 52 53 48 44 38 35 30 28 26 24 22 18 16 14 11 11 13 16 19 22 24 28 30 31 31 32 34
9 33 33 6 6 6 8 10 20 45 44 12 26 42 57 58 56 57 58 56 55 57 55 55 54 50 44 41 37 36 33 30 27 24 22 19 17 17 18 20 21 24 28 32 34 34 33 32 32
16 22 24 24 19 24 25 32 19 43 49 53 48 40 39 55 60 57 56 56 57 61 61 60 59 55 51 47 45 42 39 35 31 30 27 24 22 21 21 22 23 25 30 34 39 40 39 37 37
12 22 33 24 34 23 15 18 20 33 34 54 51 57 55 59 65 61 63 66 66 66 68 66 62 60 56 52 50 46 42 40 37 34 28 26 25 23 23 22 24 27 32 38 44 46 46 45 44
12 14 19 29 38 11 15 18 29 75 36 31 40 61 67 62 64 72 69 70 68 71 72 73 67 64 62 58 56 53 50 46 44 40 35 33 30 28 26 26 27 29 34 39 44 45 44 45 46
8 10 8 4 26 17 21 24 22 37 50 59 50 47 53 65 69 73 69 70 65 70 78 76 71 66 65 63 61 57 54 49 47 43 39 37 33 28 27 28 28 28 32 37 43 46 47 48 51
17 13 20 16 26 16 19 19 8 5 20 29 41 45 53 66 73 70 70 69 68 72 79 79 74 69 68 66 63 60 55 52 49 45 42 40 35 33 31 28 28 29 32 36 42 45 47 50 53
13 19 19 19 16 15 15 34 26 41 25 41 55 59 68 71 72 75 73 71 71 75 81 78 74 70 67 66 64 63 60 57 56 51 50 46 43 38 32 30 29 30 33 38 43 44 44 48 56
26 30 31 42 20 19 28 35 36 44 43 44 62 71 71 75 70 69 75 75 71 78 81 80 77 75 72 76 76 73 70 64 62 57 56 51 47 40 35 35 34 34 35 40 43 45 47 48 54
19 24 37 30 19 19 23 28 22 19 40 58 61 67 81 57 49 59 69 76 75 81 83 81 80 77 77 79 77 73 68 67 62 60 60 56 51 45 42 39 36 36 37 41 43 47 47 45 46
38 26 38 35 25 9 10 15 24 22 56 66 74 81 82 63 53 52 72 75 74 83 88 85 82 78 77 80 77 76 72 70 71 73 70 64 57 51 46 41 40 39 40 42 45 45 43 42 44
44 19 22 23 14 21 16 15 18 13 18 21 53 72 74 54 47 51 68 72 73 79 82 81 79 78 77 80 83 87 89 86 83 75 68 65 59 54 50 46 44 43 42 43 45 43 41 41 43
34 8 8 9 13 13 15 15 17 21 20 25 23 64 76 48 44 55 61 72 68 69 78 79 81 79 78 82 82 86 88 84 76 72 70 68 60 56 53 50 46 44 43 45 45 41 40 41 45
7 1 8 6 4 17 22 23 11 17 21 13 19 58 64 46 30 38 47 56 63 68 74 78 80 80 81 82 84 87 85 85 84 82 78 69 63 60 56 51 48 45 46 45 44 43 43 43 47
8 6 7 6 5 24 28 27 39 11 16 21 23 47 51 34 33 35 44 58 66 71 74 78 80 82 83 84 84 84 85 84 89 88 81 73 69 67 60 55 50 47 45 46 46 46 48 48 51
17 18 11 13 13 39 10 17 12 18 24 54 57 74 33 37 36 38 47 53 62 72 72 77 81 84 84 82 81 82 84 87 94 94 86 80 74 65 61 56 50 48 47 47 48 50 50 51 55
10 12 8 7 2 9 22 23 16 8 22 22 41 33 36 35 36 40 47 53 59 67 67 73 81 84 83 82 81 81 83 89 97 97 90 82 75 69 63 57 52 51 49 49 51 51 51 54 58
6 5 4 5 5 16 41 23 31 13 33 19 13 20 31 33 36 40 45 53 60 62 65 71 80 84 82 84 84 86 83 87 94 95 93 87 79 73 65 59 55 50 49 50 51 52 54 57 59
6 8 9 4 10 19 30 30 13 11 7 19 18 27 28 27 27 34 37 45 55 63 68 72 75 81 89 89 87 88 87 86 94 96 94 87 79 72 64 58 53 52 51 52 53 54 56 58 63
17 29 26 20 27 8 16 53 12 16 19 19 18 33 27 27 31 33 39 44 56 65 66 70 76 84 89 95 91 90 89 88 93 94 92 85 79 70 61 56 55 54 52 52 53 55 55 60 65
Wind_Direction_500mb
180 143 38 310 281 208 255 165 80 113 103 88 343 81 44 70 354 188 175 179 180 179 185 182 178 174 188 192 183 192 204 221 259 286 284 287 289 296 301 305 304 306 301 304 311 314 310 313 316
203 84 359 287 246 256 292 107 149 153 83 111 16 38 27 86 95 156 160 169 178 189 194 176 176 183 202 204 251 260 258 268 275 277 290 296 296 294 295 296 298 299 300 300 300 300 303 306 306
190 143 271 203 235 256 31 113 143 81 113 139 150 204 343 94 144 166 187 180 180 197 194 191 197 205 207 196 207 220 240 253 263 282 285 286 287 288 291 294 294 293 292 292 293 293 294 299 300
97 283 270 257 270 294 33 119 112 114 127 191 153 173 190 174 171 216 192 183 192 202 197 199 191 187 190 165 196 224 219 255 272 274 277 288 291 293 297 300 303 301 301 300 301 303 305 303 299
132 267 258 228 249 227 95 334 127 157 164 186 180 170 202 196 223 229 194 192 196 211 204 199 204 210 202 199 203 218 247 259 278 287 298 294 297 301 303 303 305 312 314 311 309 308 308 305 303
264 245 276 257 301 86 95 190 166 178 172 146 183 260 179 230 222 211 195 197 202 212 206 206 210 208 208 213 215 225 239 261 282 294 300 307 311 317 332 342 346 348 344 340 337 335 330 326 319
257 278 259 285 309 302 177 162 215 199 185 175 187 216 190 222 227 213 205 207 215 216 220 218 223 221 218 227 241 249 264 272 283 300 325 335 354 10 13 12 9 6 1 358 354 349 344 338 335
285 280 267 263 269 339 105 152 233 246 227 193 204 223 203 233 222 209 205 213 216 217 222 225 224 227 228 233 235 246 254 274 293 310 318 327 332 354 4 7 0 355 351 348 343 339 337 336 335
242 278 268 269 316 273 123 196 193 224 224 198 205 222 236 223 211 207 209 216 220 221 224 227 228 229 230 233 241 243 250 258 262 263 274 288 329 349 359 355 353 351 348 343 338 333 328 325 323
219 233 262 29 358 285 170 219 199 207 220 222 226 234 236 231 227 219 220 221 223 224 223 226 227 227 228 227 230 234 241 248 253 259 264 269 287 320 331 340 342 338 333 328 324 321 317 313 312
219 231 62 308 271 287 282 228 244 206 245 223 224 225 238 235 231 229 231 232 233 232 228 228 227 227 226 230 230 233 234 237 243 246 248 254 265 286 298 305 311 319 323 324 323 320 318 316 315
264 248 260 283 264 258 250 270 253 229 234 264 238 228 233 230 234 235 235 232 230 231 234 229 226 227 224 227 227 229 231 233 235 237 239 242 253 266 279 290 304 311 317 324 327 328 326 324 323
223 263 282 256 249 247 258 260 253 256 249 254 255 249 240 234 238 243 242 237 230 230 233 231 228 225 224 225 226 228 229 231 233 232 233 241 253 265 274 286 296 307 319 328 333 335 333 329 329
346 298 288 274 231 226 225 258 236 257 257 245 238 245 238 240 241 242 237 233 227 229 231 233 229 225 224 224 227 229 229 232 233 235 235 241 249 257 267 280 290 306 321 332 337 337 336 334 331
281 300 269 243 229 227 218 271 233 251 235 233 235 238 244 242 240 241 243 236 230 227 229 232 230 224 223 222 227 227 227 228 230 231 233 239 245 252 264 277 291 308 322 334 337 334 330 327 327
231 233 282 274 175 162 145 269 235 260 233 231 239 241 241 245 246 243 242 240 232 226 228 231 230 224 222 222 225 226 227 227 229 231 234 240 247 256 265 274 289 310 326 329 329 328 326 327 326
222 252 236 262 176 139 179 254 255 215 206 227 232 247 251 254 252 245 240 234 233 228 229 229 230 225 222 221 224 227 228 230 232 236 240 244 249 253 261 275 291 306 314 318 319 323 324 325 324
225 226 252 260 198 188 209 250 264 255 258 260 264 260 256 252 254 249 236 232 232 230 229 230 229 226 222 222 223 226 227 229 232 234 238 241 244 250 260 274 285 295 304 309 313 319 320 322 325
253 264 264 267 254 183 236 240 251 261 264 250 258 261 260 259 261 251 241 226 226 224 222 226 226 226 222 220 222 225 228 229 232 234 238 241 244 249 259 267 275 284 293 301 308 313 317 324 325
270 269 266 276 294 208 248 252 252 260 263 261 258 264 265 263 251 245 231 221 220 221 220 224 229 229 227 226 227 229 232 232 235 236 240 242 244 247 253 262 271 280 289 295 305 309 315 320 324
248 249 259 263 283 222 310 269 252 245 249 257 261 261 264 262 246 239 219 217 218 218 220 225 230 230 228 229 227 228 229 231 231 233 236 238 240 243 249 257 267 275 283 294 300 302 307 311 319
265 235 257 266 284 259 181 283 231 220 227 226 249 261 266 261 247 230 217 215 223 224 226 227 228 230 228 229 229 230 234 233 236 240 240 238 239 242 245 252 263 274 284 290 292 298 304 303 309
263 207 232 270 265 301 258 281 221 192 232 240 242 257 268 262 258 219 222 224 231 225 222 223 224 228 228 228 231 233 235 238 239 239 236 238 239 240 243 252 262 271 278 283 290 295 297 298 303
118 86 214 231 212 255 210 216 226 205 213 221 224 244 259 264 234 220 223 223 222 221 220 220 221 225 227 229 231 236 237 235 233 233 235 237 240 241 245 251 257 267 276 281 286 290 292 295 299
195 141 289 293 195 252 187 222 241 196 177 188 211 234 248 201 220 221 216 213 215 217 218 221 222 223 226 230 233 238 239 237 236 238 239 237 238 240 245 250 256 266 273 278 284 288 291 294 298
184 183 178 240 251 275 201 250 236 205 217 214 222 244 228 217 219 222 223 219 216 218 222 222 224 223 226 230 233 239 240 239 237 238 238 238 240 242 245 250 257 266 272 277 281 285 290 294 297
182 202 196 262 115 298 253 267 311 273 238 220 219 198 197 207 224 223 224 226 224 224 230 230 228 226 227 231 232 238 240 239 238 237 236 236 237 239 244 250 257 263 269 274 279 284 290 293 294
217 165 131 228 253 243 276 278 270 208 233 223 192 206 222 236 238 240 234 233 234 235 239 235 232 231 230 232 234 238 241 240 240 238 236 235 236 237 241 247 253 261 268 273 278 284 290 292 293
169 236 223 268 193 241 269 273 278 139 153 178 208 214 237 224 236 239 248 241 244 248 245 238 234 234 233 235 237 238 240 241 241 239 236 234 235 235 238 246 254 261 265 270 275 281 288 291 293
235 221 191 226 237 230 237 262 222 153 164 162 193 197 209 243 232 246 258 257 251 249 245 244 242 239 239 239 236 237 238 241 241 239 235 231 232 234 238 246 254 259 265 269 276 284 288 291 292
Wind_Speed_850mb
7 3 6 5 3 5 11 11 7 11 3 10 8 8 3 15 4 5 21 35 30 19 16 16 13 11 11 7 10 10 7 6 8 9 10 11 13 15 17 17 19 18 18 17 17 18 21 24 26
8 4 6 10 4 8 6 16 11 14 15 16 5 10 3 7 3 11 23 35 31 25 17 13 10 7 6 3 5 6 10 12 14 18 18 18 18 19 20 21 20 21 22 23 25 27 28 27 26
5 4 6 6 9 13 5 8 14 25 20 16 9 6 6 8 4 16 17 36 31 25 19 11 8 7 5 5 7 8 10 12 17 17 17 18 19 20 22 22 23 25 26 29 30 31 32 32 31
8 4 11 5 19 17 7 7 41 21 9 10 3 7 6 15 19 19 23 37 32 27 19 14 9 5 3 2 1 2 2 5 7 7 8 10 12 15 17 19 20 22 23 24 28 30 32 33 34
3 9 6 12 20 5 11 11 29 17 21 21 15 8 7 17 29 18 25 36 31 26 18 12 10 10 8 6 5 4 4 5 7 7 9 11 13 15 16 17 19 20 22 25 27 28 27 28 30
9 8 7 12 12 11 8 9 17 26 25 25 18 16 9 18 27 26 31 34 33 29 22 21 20 18 13 11 9 8 7 6 9 10 10 10 10 9 9 10 11 12 14 17 20 22 23 25 26
6 5 13 20 17 3 11 16 17 22 22 21 9 7 11 24 26 30 32 37 36 32 30 27 24 19 16 13 11 9 8 7 7 5 5 6 7 9 10 13 17 19 20 21 23 24 26 27 27
9 4 11 11 9 10 11 15 4 21 13 18 31 11 11 31 31 32 36 38 39 38 38 35 29 26 21 17 14 12 9 8 7 5 5 6 6 7 12 16 18 21 25 27 27 28 29 29 28
6 5 10 15 1 1 14 11 14 16 9 19 25 19 13 17 30 35 41 43 45 46 45 42 37 32 27 22 18 15 14 12 10 8 7 7 6 9 11 15 19 24 27 28 29 30 30 29 29
10 6 11 6 10 6 14 21 15 8 23 25 29 32 32 33 37 41 46 49 51 52 52 49 44 39 33 29 25 21 19 18 17 15 12 9 6 7 10 13 17 20 23 27 29 29 28 29 29
12 10 3 9 9 8 13 18 27 15 16 31 43 48 50 48 49 49 51 51 52 52 52 53 48 44 38 35 30 28 26 24 22 18 16 14 11 11 13 16 19 22 24 28 30 31 31 32 34
9 33 33 6 6 6 8 10 20 45 44 12 26 42 57 58 56 57 58 56 55 57 55 55 54 50 44 41 37 36 33 30 27 24 22 19 17 17 18 20 21 24 28 32 34 34 33 32 32
16 22 24 24 19 24 25 32 19 43 49 53 48 40 39 55 60 57 56 56 57 61 61 60 59 55 51 47 45 42 39 35 31 30 27 24 22 21 21 22 23 25 30 34 39 40 39 37 37
12 22 33 24 34 23 15 18 20 33 34 54 51 57 55 59 65 61 63 66 66 66 68 66 62 60 56 52 50 46 42 40 37 34 28 26 25 23 23 22 24 27 32 38 44 46 46 45 44
12 14 19 29 38 11 15 18 29 75 36 31 40 61 67 62 64 72 69 70 68 71 72 73 67 64 62 58 56 53 50 46 44 40 35 33 30 28 26 26 27 29 34 39 44 45 44 45 46
8 10 8 4 26 17 21 24 22 37 50 59 50 47 53 65 69 73 69 70 65 70 78 76 71 66 65 63 61 57 54 49 47 43 39 37 33 28 27 28 28 28 32 37 43 46 47 48 51
17 13 20 16 26 16 19 19 8 5 20 29 41 45 53 66 73 70 70 69 68 72 79 79 74 69 68 66 63 60 55 52 49 45 42 40 35 33 31 28 28 29 32 36 42 45 47 50 53
13 19 19 19 16 15 15 34 26 41 25 41 55 59 68 71 72 75 73 71 71 75 81 78 74 70 67 66 64 63 60 57 56 51 50 46 43 38 32 30 29 30 33 38 43 44 44 48 56
26 30 31 42 20 19 28 35 36 44 43 44 62 71 71 75 70 69 75 75 71 78 81 80 77 75 72 76 76 73 70 64 62 57 56 51 47 40 35 35 34 34 35 40 43 45 47 48 54
19 24 37 30 19 19 23 28 22 19 40 58 61 67 81 57 49 59 69 76 75 81 83 81 80 77 77 79 77 73 68 67 62 60 60 56 51 45 42 39 36 36 37 41 43 47 47 45 46
38 26 38 35 25 9 10 15 24 22 56 66 74 81 82 63 53 52 72 75 74 83 88 85 82 78 77 80 77 76 72 70 71 73 70 64 57 51 46 41 40 39 40 42 45 45 43 42 44
44 19 22 23 14 21 16 15 18 13 18 21 53 72 74 54 47 51 68 72 73 79 82 81 79 78 77 80 83 87 89 86 83 75 68 65 59 54 50 46 44 43 42 43 45 43 41 41 43
34 8 8 9 13 13 15 15 17 21 20 25 23 64 76 48 44 55 61 72 68 69 78 79 81 79 78 82 82 86 88 84 76 72 70 68 60 56 53 50 46 44 43 45 45 41 40 41 45
7 1 8 6 4 17 22 23 11 17 21 13 19 58 64 46 30 38 47 56 63 68 74 78 80 80 81 82 84 87 85 85 84 82 78 69 63 60 56 51 48 45 46 45 44 43 43 43 47
8 6 7 6 5 24 28 27 39 11 16 21 23 47 51 34 33 35 44 58 66 71 74 78 80 82 83 84 84 84 85 84 89 88 81 73 69 67 60 55 50 47 45 46 46 46 48 48 51
17 18 11 13 13 39 10 17 12 18 24 54 57 74 33 37 36 38 47 53 62 72 72 77 81 84 84 82 81 82 84 87 94 94 86 80 74 65 61 56 50 48 47 47 48 50 50 51 55
10 12 8 7 2 9 22 23 16 8 22 22 41 33 36 35 36 40 47 53 59 67 67 73 81 84 83 82 81 81 83 89 97 97 90 82 75 69 63 57 52 51 49 49 51 51 51 54 58
6 5 4 5 5 16 41 23 31 13 33 19 13 20 31 33 36 40 45 53 60 62 65 71 80 84 82 84 84 86 83 87 94 95 93 87 79 73 65 59 55 50 49 50 51 52 54 57 59
6 8 9 4 10 19 30 30 13 11 7 19 18 27 28 27 27 34 37 45 55 63 68 72 75 81 89 89 87 88 87 86 94 96 94 87 79 72 64 58 53 52 51 52 53 54 56 58 63
17 29 26 20 27 8 16 53 12 16 19 19 18 33 27 27 31 33 39 44 56 65 66 70 76 84 89 95 91 90 89 88 93 94 92 85 79 70 61 56 55 54 52 52 53 55 55 60 65
Wind_Direction_850mb
180 143 38 310 281 208 255 165 80 113 103 88 343 81 44 70 354 188 175 179 180 179 185 182 178 174 188 192 183 192 204 221 259 286 284 287 289 296 301 305 304 306 301 304 311 314 310 313 316
203 84 359 287 246 256 292 107 149 153 83 111 16 38 27 86 95 156 160 169 178 189 194 176 176 183 202 204 251 260 258 268 275 277 290 296 296 294 295 296 298 299 300 300 300 300 303 306 306
190 143 271 203 235 256 31 113 143 81 113 139 150 204 343 94 144 166 187 180 180 197 194 191 197 205 207 196 207 220 240 253 263 282 285 286 287 288 291 294 294 293 292 292 293 293 294 299 300
97 283 270 257 270 294 33 119 112 114 127 191 153 173 190 174 171 216 192 183 192 202 197 199 191 187 190 165 196 224 219 255 272 274 277 288 291 293 297 300 303 301 301 300 301 303 305 303 299
132 267 258 228 249 227 95 334 127 157 164 186 180 170 202 196 223 229 194 192 196 211 204 199 204 210 202 199 203 218 247 259 278 287 298 294 297 301 303 303 305 312 314 311 309 308 308 305 303
264 245 276 257 301 86 95 190 166 178 172 146 183 260 179 230 222 211 195 197 202 212 206 206 210 208 208 213 215 225 239 261 282 294 300 307 311 317 332 342 346 348 344 340 337 335 330 326 319
257 278 259 285 309 302 177 162 215 199 185 175 187 216 190 222 227 213 205 207 215 216 220 218 223 221 218 227 241 249 264 272 283 300 325 335 354 10 13 12 9 6 1 358 354 349 344 338 335
285 280 267 263 269 339 105 152 233 246 227 193 204 223 203 233 222 209 205 213 216 217 222 225 224 227 228 233 235 246 254 274 293 310 318 327 332 354 4 7 0 355 351 348 343 339 337 336 335
242 278 268 269 316 273 123 196 193 224 224 198 205 222 236 223 211 207 209 216 220 221 224 227 228 229 230 233 241 243 250 258 262 263 274 288 329 349 359 355 353 351 348 343 338 333 328 325 323
219 233 262 29 358 285 170 219 199 207 220 222 226 234 236 231 227 219 220 221 223 224 223 226 227 227 228 227 230 234 241 248 253 259 264 269 287 320 331 340 342 338 333 328 324 321 317 313 312
219 231 62 308 271 287 282 228 244 206 245 223 224 225 238 235 231 229 231 232 233 232 228 228 227 227 226 230 230 233 234 237 243 246 248 254 265 286 298 305 311 319 323 324 323 320 318 316 315
264 248 260 283 264 258 250 270 253 229 234 264 238 228 233 230 234 235 235 232 230 231 234 229 226 227 224 227 227 229 231 233 235 237 239 242 253 266 279 290 304 311 317 324 327 328 326 324 323
223 263 282 256 249 247 258 260 253 256 249 254 255 249 240 234 238 243 242 237 230 230 233 231 228 225 224 225 226 228 229 231 233 232 233 241 253 265 274 286 296 307 319 328 333 335 333 329 329
346 298 288 274 231 226 225 258 236 257 257 245 238 245 238 240 241 242 237 233 227 229 231 233 229 225 224 224 227 229 229 232 233 235 235 241 249 257 267 280 290 306 321 332 337 337 336 334 331
281 300 269 243 229 227 218 271 233 251 235 233 235 238 244 242 240 241 243 236 230 227 229 232 230 224 223 222 227 227 227 228 230 231 233 239 245 252 264 277 291 308 322 334 337 334 330 327 327
231 233 282 274 175 162 145 269 235 260 233 231 239 241 241 245 246 243 242 240 232 226 228 231 230 224 222 222 225 226 227 227 229 231 234 240 247 256 265 274 289 310 326 329 329 328 326 327 326
222 252 236 262 176 139 179 254 255 215 206 227 232 247 251 254 252 245 240 234 233 228 229 229 230 225 222 221 224 227 228 230 232 236 240 244 249 253 261 275 291 306 314 318 319 323 324 325 324
225 226 252 260 198 188 209 250 264 255 258 260 264 260 256 252 254 249 236 232 232 230 229 230 229 226 222 222 223 226 227 229 232 234 238 241 244 250 260 274 285 295 304 309 313 319 320 322 325
253 264 264 267 254 183 236 240 251 261 264 250 258 261 260 259 261 251 241 226 226 224 222 226 226 226 222 220 222 225 228 229 232 234 238 241 244 249 259 267 275 284 293 301 308 313 317 324 325
270 269 266 276 294 208 248 252 252 260 263 261 258 264 265 263 251 245 231 221 220 221 220 224 229 229 227 226 227 229 232 232 235 236 240 242 244 247 253 262 271 280 289 295 305 309 315 320 324
248 249 259 263 283 222 310 269 252 245 249 257 261 261 264 262 246 239 219 217 218 218 220 225 230 230 228 229 227 228 229 231 231 233 236 238 240 243 249 257 267 275 283 294 300 302 307 311 319
265 235 257 266 284 259 181 283 231 220 227 226 249 261 266 261 247 230 217 215 223 224 226 227 228 230 228 229 229 230 234 233 236 240 240 238 239 242 245 252 263 274 284 290 292 298 304 303 309
263 207 232 270 265 301 258 281 221 192 232 240 242 257 268 262 258 219 222 224 231 225 222 223 224 228 228 228 231 233 235 238 239 239 236 238 239 240 243 252 262 271 278 283 290 295 297 298 303
118 86 214 231 212 255 210 216 226 205 213 221 224 244 259 264 234 220 223 223 222 221 220 220 221 225 227 229 231 236 237 235 233 233 235 237 240 241 245 251 257 267 276 281 286 290 292 295 299
195 141 289 293 195 252 187 222 241 196 177 188 211 234 248 201 220 221 216 213 215 217 218 221 222 223 226 230 233 238 239 237 236 238 239 237 238 240 245 250 256 266 273 278 284 288 291 294 298
184 183 178 240 251 275 201 250 236 205 217 214 222 244 228 217 219 222 223 219 216 218 222 222 224 223 226 230 233 239 240 239 237 238 238 238 240 242 245 250 257 266 272 277 281 285 290 294 297
182 202 196 262 115 298 253 267 311 273 238 220 219 198 197 207 224 223 224 226 224 224 230 230 228 226 227 231 232 238 240 239 238 237 236 236 237 239 244 250 257 263 269 274 279 284 290 293 294
217 165 131 228 253 243 276 278 270 208 233 223 192 206 222 236 238 240 234 233 234 235 239 235 232 231 230 232 234 238 241 240 240 238 236 235 236 237 241 247 253 261 268 273 278 284 290 292 293
169 236 223 268 193 241 269 273 278 139 153 178 208 214 237 224 236 239 248 241 244 248 245 238 234 234 233 235 237 238 240 241 241 239 236 234 235 235 238 246 254 261 265 270 275 281 288 291 293
235 221 191 226 237 230 237 262 222 153 164 162 193 197 209 243 232 246 258 257 251 249 245 244 242 239 239 239 236 237 238 241 241 239 235 231 232 234 238 246 254 259 265 269 276 284 288 291 292